Tracking 35274 objects as of 10-Sep-2026
HD Live streaming from Space Station
objects crossing your sky now

OBJECT E


OBJECT E is no longer on orbit


NORAD ID: 43853
Int'l Code: 2018-104E
Launch date: December 16, 2018
Source: United States (US)
Launch site: Rocket Lab Launch Complex (RLLC)
Decay date: 2022-12-14
Your satellite tracking list
Your tracking list is empty




NASA's NSSDC Master Catalog

Two Line Element Set (TLE):
1 43853U 18104E   22342.57275766  .06714655 -14220-5  25106-2 0  9990
2 43853  84.9830 284.1052 0009341 153.5341 206.6435 16.24383795222233
Source of the keplerian elements: AFSPC